MSC93 HESN-HECA

Flight info

Callsign MSC93
Flight time 1h 29m
Altitude 34000
Route ASN V738 AST W8 CVO
Aircraft A320/M-SDE3FGHIRWY/LB1

Departure

Time 2026-04-29 12:59
Airport Aswan International Airport (HESN)

Arrival

Time 2026-04-29 14:28
Airport Cairo International Airport (HECA)
Time Latitude Longitude Altitude Speed Heading
2026-04-29 12:47 23.96387 32.82446 677 ft 0 kts 350°
2026-04-29 12:52 23.96390 32.82445 677 ft 1 kts 350°
2026-04-29 12:53 23.96411 32.82441 677 ft 5 kts 350°
2026-04-29 12:53 23.96456 32.82432 677 ft 9 kts 333°
2026-04-29 12:53 23.96467 32.82368 677 ft 9 kts 248°
2026-04-29 12:53 23.96457 32.82303 677 ft 8 kts 263°
2026-04-29 12:54 23.96426 32.82258 677 ft 8 kts 188°
2026-04-29 12:54 23.96374 32.82261 677 ft 7 kts 187°
2026-04-29 12:54 23.96325 32.82266 677 ft 8 kts 169°
2026-04-29 12:54 23.96257 32.82282 677 ft 12 kts 167°
2026-04-29 12:55 23.96165 32.82300 677 ft 13 kts 170°
2026-04-29 12:55 23.96075 32.82316 677 ft 13 kts 171°
2026-04-29 12:55 23.95990 32.82330 677 ft 12 kts 171°
2026-04-29 12:55 23.95908 32.82344 677 ft 13 kts 171°
2026-04-29 12:56 23.95756 32.82371 677 ft 32 kts 171°
2026-04-29 12:56 23.95513 32.82415 677 ft 37 kts 171°
2026-04-29 12:56 23.95282 32.82454 677 ft 31 kts 173°
2026-04-29 12:56 23.95123 32.82480 677 ft 21 kts 169°
2026-04-29 12:57 23.95010 32.82499 677 ft 11 kts 174°
2026-04-29 12:57 23.94977 32.82470 677 ft 1 kts 279°
2026-04-29 12:57 23.94978 32.82469 677 ft 0 kts 279°
2026-04-29 12:57 23.94978 32.82468 677 ft 0 kts 279°
2026-04-29 12:58 23.94968 32.82430 677 ft 8 kts 258°
2026-04-29 12:58 23.94987 32.82396 677 ft 5 kts 349°
2026-04-29 12:58 23.95030 32.82390 677 ft 13 kts 352°
2026-04-29 12:58 23.95294 32.82350 677 ft 73 kts 351°
2026-04-29 12:59 23.96041 32.82212 677 ft 142 kts 352°
2026-04-29 12:59 23.97183 32.82024 880 ft 180 kts 351°
2026-04-29 12:59 23.98447 32.81810 1787 ft 184 kts 351°
2026-04-29 12:59 23.99720 32.81591 2857 ft 184 kts 351°
2026-04-29 13:00 24.01015 32.81367 3551 ft 198 kts 351°
2026-04-29 13:00 24.02480 32.81121 3815 ft 229 kts 351°
2026-04-29 13:00 24.04122 32.80840 4367 ft 247 kts 351°
2026-04-29 13:00 24.05764 32.80214 4965 ft 253 kts 331°
2026-04-29 13:01 24.07295 32.79213 5790 ft 258 kts 328°
2026-04-29 13:01 24.08838 32.78221 6817 ft 261 kts 327°
2026-04-29 13:01 24.10432 32.77209 7804 ft 265 kts 326°
2026-04-29 13:01 24.12033 32.76192 8760 ft 268 kts 326°
2026-04-29 13:02 24.13661 32.75169 9683 ft 272 kts 326°
2026-04-29 13:02 24.15329 32.74129 10508 ft 280 kts 327°
2026-04-29 13:02 24.17096 32.73033 10925 ft 302 kts 327°
2026-04-29 13:02 24.18897 32.71933 11985 ft 295 kts 327°
2026-04-29 13:03 24.20684 32.70840 13025 ft 292 kts 327°
2026-04-29 13:03 24.22449 32.69751 13909 ft 293 kts 327°
2026-04-29 13:03 24.24264 32.68630 14727 ft 295 kts 327°
2026-04-29 13:03 24.26028 32.67538 15467 ft 297 kts 327°
2026-04-29 13:04 24.27845 32.66415 16188 ft 300 kts 327°
2026-04-29 13:04 24.29682 32.65279 16883 ft 303 kts 327°
2026-04-29 13:04 24.31535 32.64134 17555 ft 306 kts 327°
2026-04-29 13:04 24.33389 32.62988 18201 ft 309 kts 327°
2026-04-29 13:05 24.35284 32.61816 18836 ft 312 kts 327°
2026-04-29 13:05 24.37185 32.60640 19449 ft 315 kts 327°
2026-04-29 13:05 24.39114 32.59445 20049 ft 318 kts 327°
2026-04-29 13:05 24.41035 32.58253 20341 ft 326 kts 327°
2026-04-29 13:06 24.43017 32.57026 20356 ft 323 kts 327°
2026-04-29 13:06 24.44974 32.55813 20358 ft 321 kts 327°
2026-04-29 13:06 24.46917 32.54605 20358 ft 321 kts 327°
2026-04-29 13:06 24.48870 32.53390 20358 ft 321 kts 327°
2026-04-29 13:07 24.50814 32.52179 20358 ft 321 kts 327°
2026-04-29 13:07 24.52736 32.50981 20358 ft 321 kts 327°
2026-04-29 13:07 24.54679 32.49770 20358 ft 321 kts 327°
2026-04-29 13:07 24.56617 32.48562 20358 ft 321 kts 327°
2026-04-29 13:08 24.58566 32.47345 20358 ft 321 kts 327°
2026-04-29 13:08 24.60505 32.46135 20358 ft 321 kts 327°
2026-04-29 13:08 24.62450 32.44921 20358 ft 321 kts 327°
2026-04-29 13:08 24.64386 32.43712 20358 ft 321 kts 327°
2026-04-29 13:09 24.66330 32.42498 20358 ft 321 kts 327°
2026-04-29 13:09 24.68254 32.41295 20358 ft 321 kts 327°
2026-04-29 13:09 24.70226 32.40091 20358 ft 321 kts 328°
2026-04-29 13:09 24.72186 32.38956 20358 ft 321 kts 328°
2026-04-29 13:10 24.74182 32.37810 20358 ft 322 kts 328°
2026-04-29 13:10 24.75237 32.37204 20358 ft 322 kts 328°
2026-04-29 13:11 24.75412 32.37104 20358 ft 322 kts 328°
2026-04-29 13:13 24.76046 32.36740 20358 ft 322 kts 328°
2026-04-29 13:14 24.78002 32.35616 20358 ft 322 kts 328°
2026-04-29 13:14 24.79987 32.34475 20358 ft 321 kts 328°
2026-04-29 13:14 24.81979 32.33328 20355 ft 322 kts 328°
2026-04-29 13:14 24.83966 32.32186 20283 ft 318 kts 328°
2026-04-29 13:15 24.84593 32.31825 20194 ft 317 kts 328°
2026-04-29 13:15 24.87845 32.29952 20004 ft 315 kts 328°
2026-04-29 13:15 24.89799 32.28825 19997 ft 318 kts 328°
2026-04-29 13:15 24.91744 32.27703 19996 ft 319 kts 328°
2026-04-29 13:16 24.93713 32.26568 19996 ft 319 kts 328°
2026-04-29 13:16 24.95689 32.25428 19996 ft 319 kts 328°
2026-04-29 13:16 24.97643 32.24300 19996 ft 320 kts 328°
2026-04-29 13:16 24.99633 32.23152 19996 ft 320 kts 328°
2026-04-29 13:17 25.01586 32.22024 19996 ft 320 kts 328°
2026-04-29 13:17 25.03559 32.20885 19996 ft 320 kts 328°
2026-04-29 13:17 25.05531 32.19745 19996 ft 320 kts 328°
2026-04-29 13:17 25.07494 32.18611 19996 ft 320 kts 328°
2026-04-29 13:18 25.09468 32.17469 19996 ft 320 kts 328°
2026-04-29 13:18 25.10772 32.16715 19996 ft 320 kts 328°
2026-04-29 13:18 25.12750 32.15570 19996 ft 320 kts 328°
2026-04-29 13:18 25.14703 32.14439 19996 ft 320 kts 328°
2026-04-29 13:19 25.17335 32.12916 19996 ft 320 kts 328°
2026-04-29 13:19 25.18644 32.12157 19996 ft 320 kts 328°
2026-04-29 13:19 25.20626 32.11009 19996 ft 320 kts 328°
2026-04-29 13:19 25.22607 32.09860 19996 ft 320 kts 328°
2026-04-29 13:20 25.24571 32.08722 19996 ft 320 kts 328°
2026-04-29 13:20 25.26543 32.07577 19996 ft 320 kts 328°
2026-04-29 13:20 25.28515 32.06433 19996 ft 320 kts 328°
2026-04-29 13:20 25.30491 32.05286 19996 ft 320 kts 328°
2026-04-29 13:21 25.32439 32.04154 19996 ft 320 kts 328°
2026-04-29 13:21 25.34411 32.03009 19996 ft 320 kts 328°
2026-04-29 13:21 25.36384 32.01862 19996 ft 320 kts 328°
2026-04-29 13:21 25.38359 32.00714 19996 ft 320 kts 328°
2026-04-29 13:22 25.40331 31.99567 19996 ft 320 kts 328°
2026-04-29 13:22 25.42281 31.98432 19996 ft 320 kts 328°
2026-04-29 13:22 25.44249 31.97287 19996 ft 320 kts 328°
2026-04-29 13:22 25.46227 31.96135 19996 ft 320 kts 328°
2026-04-29 13:23 25.48183 31.94996 19996 ft 320 kts 328°
2026-04-29 13:23 25.50162 31.93843 19983 ft 320 kts 328°
2026-04-29 13:23 25.52127 31.92698 19766 ft 318 kts 328°
2026-04-29 13:23 25.54066 31.91567 19518 ft 317 kts 328°
2026-04-29 13:24 25.56006 31.90435 19269 ft 316 kts 328°
2026-04-29 13:24 25.57963 31.89294 19017 ft 315 kts 328°
2026-04-29 13:24 25.59894 31.88166 18769 ft 316 kts 328°
2026-04-29 13:24 25.61845 31.87026 18517 ft 315 kts 328°
2026-04-29 13:25 25.63826 31.85993 18264 ft 314 kts 334°
2026-04-29 13:25 25.67899 31.84338 17767 ft 312 kts 336°
2026-04-29 13:25 25.69940 31.83523 17516 ft 311 kts 336°
2026-04-29 13:26 25.71970 31.82710 17265 ft 309 kts 336°
2026-04-29 13:26 25.73997 31.81896 17014 ft 308 kts 336°
2026-04-29 13:26 25.76014 31.81085 16763 ft 307 kts 336°
2026-04-29 13:26 25.78020 31.80277 16512 ft 306 kts 336°
2026-04-29 13:27 25.80006 31.79477 16263 ft 305 kts 336°
2026-04-29 13:27 25.82003 31.78672 16012 ft 303 kts 336°
2026-04-29 13:27 25.84020 31.77859 15757 ft 302 kts 336°
2026-04-29 13:27 25.85995 31.77062 15506 ft 301 kts 336°
2026-04-29 13:28 25.87955 31.76271 15256 ft 300 kts 336°
2026-04-29 13:28 25.89926 31.75476 15004 ft 299 kts 336°
2026-04-29 13:28 25.91883 31.74685 14753 ft 298 kts 336°
2026-04-29 13:28 25.93818 31.73903 14503 ft 297 kts 336°
2026-04-29 13:29 25.95740 31.73127 14255 ft 295 kts 336°
2026-04-29 13:29 25.97670 31.72346 14004 ft 294 kts 336°
2026-04-29 13:29 25.99591 31.71569 13753 ft 293 kts 336°
2026-04-29 13:29 26.01513 31.70792 13502 ft 292 kts 336°
2026-04-29 13:30 26.03406 31.70026 13253 ft 291 kts 336°
2026-04-29 13:30 26.05305 31.69257 13002 ft 290 kts 336°
2026-04-29 13:30 26.07199 31.68490 12752 ft 289 kts 336°
2026-04-29 13:30 26.09087 31.67725 12501 ft 288 kts 336°
2026-04-29 13:31 26.10972 31.66961 12249 ft 287 kts 336°
2026-04-29 13:31 26.12838 31.66204 11999 ft 286 kts 336°
2026-04-29 13:31 26.14711 31.65445 11748 ft 285 kts 336°
2026-04-29 13:31 26.16542 31.64702 11501 ft 283 kts 336°
2026-04-29 13:32 26.18388 31.63953 11251 ft 282 kts 336°
2026-04-29 13:32 26.20234 31.63203 11000 ft 281 kts 336°
2026-04-29 13:32 26.22077 31.62455 10749 ft 280 kts 336°
2026-04-29 13:32 26.23902 31.61714 10499 ft 279 kts 336°
2026-04-29 13:33 26.25735 31.60969 10247 ft 278 kts 336°
2026-04-29 13:33 26.27547 31.60232 9997 ft 277 kts 336°
2026-04-29 13:33 26.29338 31.59504 9749 ft 276 kts 336°
2026-04-29 13:33 26.31148 31.58768 9497 ft 275 kts 336°
2026-04-29 13:34 26.32940 31.58039 9247 ft 274 kts 336°
2026-04-29 13:34 26.34739 31.57306 8995 ft 273 kts 336°
2026-04-29 13:34 26.36520 31.56581 8745 ft 272 kts 336°
2026-04-29 13:34 26.38298 31.55857 8494 ft 271 kts 336°
2026-04-29 13:35 26.40046 31.55144 8247 ft 270 kts 336°
2026-04-29 13:35 26.41818 31.54422 7995 ft 269 kts 336°
2026-04-29 13:35 26.43475 31.53747 7759 ft 268 kts 336°
2026-04-29 13:35 26.45323 31.52993 7494 ft 267 kts 336°
2026-04-29 13:36 26.47078 31.52277 7242 ft 266 kts 336°
2026-04-29 13:36 26.48813 31.51569 6992 ft 265 kts 336°
2026-04-29 13:36 26.50525 31.50870 6744 ft 264 kts 336°
2026-04-29 13:36 26.52254 31.50163 6493 ft 263 kts 336°
2026-04-29 13:37 26.53959 31.49462 6242 ft 260 kts 336°
2026-04-29 13:37 26.55665 31.48759 5990 ft 258 kts 337°
2026-04-29 13:37 26.57332 31.48073 5742 ft 257 kts 338°
2026-04-29 13:37 26.59007 31.47386 5493 ft 257 kts 338°
2026-04-29 13:38 26.60684 31.46699 5242 ft 256 kts 339°
2026-04-29 13:38 26.62343 31.46020 4984 ft 247 kts 339°
2026-04-29 13:38 26.63943 31.45367 4731 ft 244 kts 339°
2026-04-29 13:38 26.65522 31.44722 4480 ft 242 kts 340°
2026-04-29 13:39 26.67115 31.44073 4226 ft 241 kts 340°
2026-04-29 13:39 26.68674 31.43437 3978 ft 242 kts 340°
2026-04-29 13:39 26.70254 31.42792 3742 ft 241 kts 340°
2026-04-29 13:39 26.71823 31.42151 3560 ft 240 kts 340°
2026-04-29 13:40 26.73393 31.41508 3384 ft 239 kts 340°
2026-04-29 13:40 26.74953 31.40869 3245 ft 239 kts 340°
2026-04-29 13:40 26.76482 31.40133 3113 ft 238 kts 330°
2026-04-29 13:40 26.77774 31.38992 2980 ft 238 kts 312°
2026-04-29 13:41 26.78826 31.37576 2894 ft 237 kts 309°
2026-04-29 13:41 26.79852 31.36135 2882 ft 237 kts 308°
2026-04-29 13:41 26.80877 31.34675 2881 ft 237 kts 308°
2026-04-29 13:41 26.81900 31.33206 2882 ft 238 kts 308°
2026-04-29 13:42 26.82900 31.31758 2882 ft 238 kts 308°
2026-04-29 13:42 26.83913 31.30288 2886 ft 238 kts 308°
2026-04-29 13:42 26.84921 31.28822 2902 ft 238 kts 307°
2026-04-29 13:42 26.85929 31.27357 2878 ft 237 kts 307°
2026-04-29 13:43 26.86939 31.25886 2878 ft 237 kts 307°
2026-04-29 13:43 26.87946 31.24420 2877 ft 236 kts 307°
2026-04-29 13:43 26.88934 31.22981 2868 ft 228 kts 307°
2026-04-29 13:43 26.89875 31.21609 2854 ft 217 kts 307°
2026-04-29 13:44 26.90776 31.20296 2845 ft 212 kts 307°
2026-04-29 13:44 26.91677 31.18982 2839 ft 210 kts 307°
2026-04-29 13:44 26.92602 31.17632 2865 ft 228 kts 307°
2026-04-29 13:44 26.93579 31.16208 2868 ft 229 kts 307°
2026-04-29 13:45 26.94514 31.14843 2875 ft 213 kts 307°
2026-04-29 13:45 26.95403 31.13552 2874 ft 203 kts 308°
2026-04-29 13:45 26.96276 31.12367 2860 ft 197 kts 310°
2026-04-29 13:45 26.97143 31.11209 2675 ft 191 kts 310°
2026-04-29 13:46 26.97979 31.10087 2549 ft 183 kts 309°
2026-04-29 13:46 26.98780 31.09019 2309 ft 175 kts 310°
2026-04-29 13:46 26.99538 31.08012 2023 ft 162 kts 310°
2026-04-29 13:46 27.00245 31.07074 1830 ft 154 kts 310°
2026-04-29 13:47 27.00921 31.06163 1689 ft 149 kts 310°
2026-04-29 13:47 27.01582 31.05286 1459 ft 143 kts 310°
2026-04-29 13:47 27.02209 31.04454 1269 ft 140 kts 310°
2026-04-29 13:47 27.02831 31.03628 1135 ft 139 kts 310°
2026-04-29 13:48 27.03455 31.02798 980 ft 139 kts 310°
2026-04-29 13:48 27.04079 31.01967 789 ft 134 kts 310°
2026-04-29 13:48 27.04616 31.01251 787 ft 107 kts 309°
2026-04-29 13:48 27.05082 31.00624 787 ft 112 kts 310°
2026-04-29 13:49 27.05683 30.99815 831 ft 158 kts 310°
2026-04-29 13:49 27.06523 30.98746 1037 ft 205 kts 312°
2026-04-29 13:49 27.07472 30.97575 2164 ft 206 kts 312°
2026-04-29 13:49 27.08428 30.96356 3370 ft 207 kts 310°
2026-04-29 13:50 27.09329 30.95122 4204 ft 200 kts 309°
2026-04-29 13:50 27.10220 30.93888 4496 ft 208 kts 309°
2026-04-29 13:50 27.11126 30.92622 4655 ft 212 kts 309°
2026-04-29 13:50 27.12045 30.91333 5477 ft 209 kts 309°
2026-04-29 13:51 27.13052 30.90145 6363 ft 211 kts 326°
2026-04-29 13:51 27.14526 30.89708 6805 ft 238 kts 357°
2026-04-29 13:51 27.16225 30.89910 6915 ft 257 kts
2026-04-29 13:51 27.18058 30.90154 7363 ft 270 kts
2026-04-29 13:52 27.19951 30.90345 8245 ft 277 kts
2026-04-29 13:52 27.21885 30.90542 9187 ft 282 kts
2026-04-29 13:52 27.23867 30.90772 10129 ft 286 kts
2026-04-29 13:52 27.25855 30.91101 11049 ft 290 kts
2026-04-29 13:53 27.27861 30.91451 11913 ft 295 kts
2026-04-29 13:53 27.29877 30.91797 12744 ft 299 kts
2026-04-29 13:53 27.31945 30.92148 13562 ft 302 kts
2026-04-29 13:53 27.34038 30.92521 14357 ft 308 kts
2026-04-29 13:54 27.36033 30.93478 15239 ft 312 kts 25°
2026-04-29 13:54 27.37992 30.94588 15917 ft 317 kts 19°
2026-04-29 13:54 27.40055 30.95441 16537 ft 321 kts 13°
2026-04-29 13:54 27.42216 30.96136 17218 ft 324 kts 11°
2026-04-29 13:55 27.44414 30.96782 17910 ft 327 kts 10°
2026-04-29 13:55 27.46627 30.97419 18547 ft 326 kts 10°
2026-04-29 13:55 27.48794 30.98041 18754 ft 323 kts 10°
2026-04-29 13:55 27.50980 30.98663 19166 ft 330 kts 10°
2026-04-29 13:56 27.53222 30.99303 19762 ft 334 kts 10°
2026-04-29 13:56 27.55492 30.99950 20357 ft 338 kts 10°
2026-04-29 13:56 27.57780 31.00603 20943 ft 341 kts 10°
2026-04-29 13:56 27.60094 31.01264 21516 ft 344 kts 10°
2026-04-29 13:57 27.62432 31.01931 21913 ft 351 kts 10°
2026-04-29 13:57 27.64019 31.02384 21990 ft 352 kts 10°
2026-04-29 13:57 27.66384 31.03062 22004 ft 350 kts 10°
2026-04-29 13:57 27.68742 31.03737 22001 ft 349 kts 10°
2026-04-29 13:58 27.71074 31.04406 21999 ft 348 kts 10°
2026-04-29 13:58 27.73439 31.05083 21999 ft 348 kts 10°
2026-04-29 13:58 27.75784 31.05754 21999 ft 348 kts 10°
2026-04-29 13:58 27.78123 31.06424 21999 ft 348 kts 10°
2026-04-29 13:59 27.80480 31.07100 21999 ft 348 kts 10°
2026-04-29 13:59 27.82847 31.07779 21999 ft 348 kts 10°
2026-04-29 13:59 27.85189 31.08451 21999 ft 348 kts 10°
2026-04-29 13:59 27.87542 31.09126 21999 ft 348 kts 10°
2026-04-29 14:00 27.89861 31.09792 21999 ft 348 kts 10°
2026-04-29 14:00 27.92212 31.10467 21999 ft 348 kts 10°
2026-04-29 14:00 27.94566 31.11144 21999 ft 348 kts 10°
2026-04-29 14:00 27.96912 31.11819 21999 ft 348 kts 10°
2026-04-29 14:01 27.99260 31.12494 21999 ft 348 kts 10°
2026-04-29 14:01 28.01612 31.13171 21999 ft 348 kts 10°
2026-04-29 14:01 28.03969 31.13850 21999 ft 348 kts 10°
2026-04-29 14:01 28.06311 31.14524 21999 ft 348 kts 10°
2026-04-29 14:02 28.08648 31.14991 22000 ft 345 kts
2026-04-29 14:02 28.11037 31.15263 22001 ft 344 kts
2026-04-29 14:02 28.13430 31.15514 22000 ft 344 kts
2026-04-29 14:02 28.15813 31.15767 21999 ft 344 kts
2026-04-29 14:03 28.18200 31.16025 21999 ft 344 kts
2026-04-29 14:03 28.20590 31.16287 21999 ft 344 kts
2026-04-29 14:03 28.22960 31.16548 21999 ft 344 kts
2026-04-29 14:03 28.25358 31.16814 21999 ft 344 kts
2026-04-29 14:04 28.27753 31.17081 21999 ft 344 kts
2026-04-29 14:04 28.30107 31.17344 21999 ft 344 kts
2026-04-29 14:04 28.32494 31.17610 21999 ft 344 kts
2026-04-29 14:04 28.34873 31.17877 21999 ft 344 kts
2026-04-29 14:05 28.37270 31.18145 21999 ft 344 kts
2026-04-29 14:05 28.39654 31.18412 21999 ft 344 kts
2026-04-29 14:05 28.42042 31.18680 21999 ft 344 kts
2026-04-29 14:05 28.44442 31.18949 21999 ft 344 kts
2026-04-29 14:06 28.46794 31.19213 21999 ft 344 kts
2026-04-29 14:06 28.49181 31.19482 21999 ft 344 kts
2026-04-29 14:06 28.51573 31.19750 21999 ft 344 kts
2026-04-29 14:06 28.53960 31.20019 21999 ft 344 kts
2026-04-29 14:07 28.56324 31.20285 21999 ft 344 kts
2026-04-29 14:07 28.58714 31.20554 21999 ft 344 kts
2026-04-29 14:07 28.61101 31.20822 21999 ft 344 kts
2026-04-29 14:07 28.63489 31.21091 21999 ft 344 kts
2026-04-29 14:08 28.65874 31.21360 21999 ft 344 kts
2026-04-29 14:08 28.68268 31.21630 21999 ft 344 kts
2026-04-29 14:08 28.70657 31.21904 21999 ft 344 kts
2026-04-29 14:08 28.73006 31.22186 21999 ft 344 kts
2026-04-29 14:09 28.75323 31.22467 21999 ft 344 kts
2026-04-29 14:09 28.77803 31.22767 21999 ft 344 kts
2026-04-29 14:09 28.80208 31.23058 21999 ft 344 kts
2026-04-29 14:09 28.82563 31.23343 21999 ft 344 kts
2026-04-29 14:10 28.84951 31.23632 21999 ft 344 kts
2026-04-29 14:10 28.87339 31.23920 21999 ft 344 kts
2026-04-29 14:10 28.89715 31.24208 21999 ft 344 kts
2026-04-29 14:10 28.92107 31.24497 21999 ft 344 kts
2026-04-29 14:11 28.94497 31.24786 21995 ft 345 kts
2026-04-29 14:11 28.96886 31.25074 21719 ft 348 kts
2026-04-29 14:11 28.99275 31.25364 21349 ft 344 kts
2026-04-29 14:11 29.01668 31.25656 20970 ft 340 kts
2026-04-29 14:12 29.03981 31.25937 20599 ft 337 kts
2026-04-29 14:12 29.06312 31.26220 20223 ft 335 kts
2026-04-29 14:12 29.08617 31.26499 19848 ft 333 kts
2026-04-29 14:13 29.12986 31.27029 19132 ft 329 kts
2026-04-29 14:13 29.15274 31.27307 18754 ft 327 kts
2026-04-29 14:13 29.17531 31.27581 18379 ft 325 kts
2026-04-29 14:13 29.19789 31.27856 17998 ft 323 kts
2026-04-29 14:14 29.22011 31.28126 17543 ft 323 kts
2026-04-29 14:14 29.24231 31.28396 16943 ft 320 kts
2026-04-29 14:14 29.26441 31.28665 16253 ft 318 kts
2026-04-29 14:14 29.28654 31.28934 15547 ft 318 kts
2026-04-29 14:15 29.30862 31.29203 14821 ft 317 kts
2026-04-29 14:15 29.33055 31.29470 14130 ft 316 kts
2026-04-29 14:15 29.35199 31.29732 13464 ft 313 kts
2026-04-29 14:15 29.37364 31.29996 12724 ft 312 kts
2026-04-29 14:16 29.39535 31.30252 11865 ft 313 kts
2026-04-29 14:16 29.41714 31.30434 11030 ft 312 kts
2026-04-29 14:16 29.43867 31.30627 10118 ft 313 kts
2026-04-29 14:16 29.46023 31.30820 9508 ft 302 kts
2026-04-29 14:17 29.48067 31.31004 9015 ft 289 kts
2026-04-29 14:17 29.50041 31.31178 8413 ft 280 kts
2026-04-29 14:17 29.51946 31.31343 7761 ft 275 kts
2026-04-29 14:17 29.53838 31.31506 7070 ft 271 kts
2026-04-29 14:18 29.55729 31.31668 6359 ft 267 kts
2026-04-29 14:18 29.57540 31.31816 5694 ft 262 kts
2026-04-29 14:18 29.59353 31.31960 5021 ft 257 kts
2026-04-29 14:18 29.61127 31.32104 4326 ft 253 kts
2026-04-29 14:19 29.62886 31.32253 3599 ft 252 kts
2026-04-29 14:19 29.64611 31.32407 2883 ft 251 kts
2026-04-29 14:19 29.66344 31.32564 2510 ft 251 kts
2026-04-29 14:19 29.68097 31.32720 2759 ft 255 kts
2026-04-29 14:20 29.69891 31.32879 3686 ft 260 kts
2026-04-29 14:20 29.71706 31.33041 4695 ft 262 kts
2026-04-29 14:20 29.73520 31.33209 5435 ft 265 kts
2026-04-29 14:20 29.75397 31.33385 6339 ft 271 kts
2026-04-29 14:21 29.77315 31.33559 6974 ft 281 kts
2026-04-29 14:21 29.79251 31.33721 7123 ft 279 kts
2026-04-29 14:21 29.81179 31.33881 6973 ft 269 kts 360°
2026-04-29 14:21 29.83045 31.34036 6840 ft 269 kts 360°
2026-04-29 14:22 29.84837 31.34188 6708 ft 255 kts 360°
2026-04-29 14:22 29.86594 31.34338 6578 ft 249 kts 360°
2026-04-29 14:22 29.88306 31.34483 6449 ft 244 kts 360°
2026-04-29 14:22 29.89984 31.34625 6231 ft 239 kts 360°
2026-04-29 14:23 29.91598 31.34762 5955 ft 225 kts
2026-04-29 14:23 29.93106 31.34889 5699 ft 211 kts
2026-04-29 14:23 29.94501 31.34663 5289 ft 200 kts 333°
2026-04-29 14:23 29.95642 31.33832 4930 ft 193 kts 325°
2026-04-29 14:24 29.96760 31.32995 4625 ft 182 kts 327°
2026-04-29 14:24 29.97772 31.32252 4395 ft 167 kts 328°
2026-04-29 14:24 29.98822 31.31887 4030 ft 158 kts
2026-04-29 14:24 29.99863 31.32180 3627 ft 149 kts 14°
2026-04-29 14:25 30.00857 31.32489 3131 ft 145 kts 14°
2026-04-29 14:25 30.01826 31.32779 2842 ft 144 kts 14°
2026-04-29 14:25 30.02788 31.33063 2727 ft 146 kts 14°
2026-04-29 14:25 30.03779 31.33355 2498 ft 145 kts 14°
2026-04-29 14:26 30.04747 31.33641 2136 ft 144 kts 15°
2026-04-29 14:26 30.05617 31.34204 1632 ft 143 kts 40°
2026-04-29 14:26 30.06302 31.34974 1332 ft 136 kts 46°
2026-04-29 14:26 30.06940 31.35797 1221 ft 137 kts 48°
2026-04-29 14:27 30.07559 31.36616 1122 ft 137 kts 49°
2026-04-29 14:27 30.08190 31.37456 969 ft 137 kts 49°
2026-04-29 14:27 30.08804 31.38273 776 ft 136 kts 49°
2026-04-29 14:28 30.10037 31.39910 420 ft 134 kts 49°
2026-04-29 14:28 30.10595 31.40648 397 ft 101 kts 49°
2026-04-29 14:28 30.10915 31.41048 397 ft 34 kts 29°
2026-04-29 14:28 30.11079 31.41124 397 ft 23 kts 25°
2026-04-29 14:29 30.11211 31.41198 397 ft 17 kts 27°
2026-04-29 14:29 30.11290 31.41244 397 ft 11 kts 25°
2026-04-29 14:29 30.11353 31.41250 397 ft 9 kts 354°
2026-04-29 14:29 30.11407 31.41236 397 ft 8 kts 336°
2026-04-29 14:30 30.11440 31.41222 397 ft 4 kts 344°